Peyton, CO

3:37 AM MST on February 26, 2017 (GMT -0700)
Meadow Lake

Weather History for KFLY - January, 2013

Change the Weather History Date:

Friday, January 11, 2013

  Actual Average (KCOS) Record (KCOS)
Temperature  
Mean Temperature 21 °F -  
Max Temperature 37 °F 43 °F 67 °F (1953)
Min Temperature 5 °F 15 °F -18 °F (1963)
Degree Days  
Heating Degree Days 44    
Moisture  
Dew Point 2 °F    
Average Humidity 44    
Maximum Humidity 95    
Minimum Humidity 11    
Precipitation  
Precipitation 0.00 in - - ()
Sea Level Pressure  
Sea Level Pressure 29.48 in    
Wind  
Wind Speed 14 mph (SW)    
Max Wind Speed 38 mph    
Max Gust Speed 53 mph    
Visibility 10 miles    
Events      
Averages and records for this station are not official NWS values.
T = Trace of Precipitation, MM = Missing Value Source: NWS Daily Summary

Daily Weather History Graph

Daily Weather History Graph

Search for Another Location

Airport or City:

Trip Planner

Search our weather history database for the weather conditions in past years. The results will help you decide how hot, cold, wet, or windy it might be!

Date:

Astronomy

Jan. 11, 2013 Rise Set
Actual Time 7:16 AM MST 4:56 PM MST
Civil Twilight 6:47 AM MST 5:25 PM MST
Nautical Twilight 6:14 AM MST 5:58 PM MST
Astronomical Twilight 5:42 AM MST 6:31 PM MST
Moon 6:52 AM MST (1/11) 5:16 PM MST (1/11)
Length of Visible Light 10h 38m
Length of Day
9h 39m
Waning Crescent, 0% of the Moon is Illuminated
Jan 11
Waning Crescent
Jan 11
New
Jan 18
First Quarter
Jan 26
Full
Feb 3
Last Quarter

Hourly Weather History & Observations

Time (MST) Temp. Windchill Dew Point Humidity Pressure Visibility Wind Dir Wind Speed Gust Speed Precip Events Conditions
12:14 AM 34.5 °F 26.2 °F 10.9 °F 38% 29.53 in 10.0 mi South 11.5 mph - N/A   Clear
12:34 AM 32.0 °F 24.8 °F 11.8 °F 43% 29.53 in 10.0 mi SSE 8.1 mph - N/A   Clear
12:54 AM 30.6 °F - 11.1 °F 44% 29.52 in 10.0 mi Calm Calm - N/A   Clear
1:14 AM 35.6 °F 24.2 °F 13.1 °F 40% 29.51 in 10.0 mi SSW 21.9 mph - N/A   Clear
1:34 AM 37.4 °F 27.5 °F 12.2 °F 36% 29.51 in 10.0 mi SSW 18.4 mph - N/A   Clear
1:54 AM 34.7 °F 25.5 °F 12.6 °F 40% 29.51 in 10.0 mi SSW 13.8 mph - N/A   Clear
2:14 AM 31.8 °F 22.8 °F 12.7 °F 45% 29.50 in 10.0 mi South 11.5 mph - N/A   Clear
2:34 AM 31.1 °F 23.1 °F 13.1 °F 47% 29.49 in 10.0 mi South 9.2 mph - N/A   Clear
2:54 AM 30.2 °F 22.6 °F 12.9 °F 49% 29.47 in 10.0 mi South 8.1 mph - N/A   Clear
3:14 AM 29.5 °F 19.9 °F 13.6 °F 52% 29.46 in 10.0 mi South 11.5 mph - N/A   Clear
3:34 AM 29.7 °F 20.1 °F 14.7 °F 54% 29.44 in 10.0 mi South 11.5 mph - N/A   Clear
3:54 AM 30.7 °F 22.6 °F 16.7 °F 56% 29.43 in 10.0 mi South 9.2 mph - N/A   Clear
4:14 AM 30.2 °F 20.8 °F 16.0 °F 56% 29.42 in 10.0 mi South 11.5 mph - N/A   Clear
4:34 AM 29.1 °F 20.0 °F 15.8 °F 58% 29.40 in 10.0 mi SSW 10.4 mph - N/A   Clear
4:54 AM 28.0 °F 20.0 °F 14.9 °F 58% 29.40 in 10.0 mi South 8.1 mph - N/A   Clear
5:14 AM 26.8 °F 20.2 °F 14.7 °F 60% 29.38 in 10.0 mi South 5.8 mph - N/A   Clear
5:34 AM 26.6 °F 20.0 °F 14.4 °F 60% 29.38 in 10.0 mi SSE 5.8 mph - N/A   Clear
5:54 AM 26.2 °F 18.6 °F 14.9 °F 62% 29.36 in 10.0 mi South 6.9 mph - N/A   Clear
6:14 AM 25.7 °F 17.1 °F 16.2 °F 67% 29.35 in 10.0 mi SSW 8.1 mph - N/A   Clear
6:34 AM 24.3 °F 16.3 °F 16.5 °F 72% 29.35 in 10.0 mi South 6.9 mph - N/A   Clear
6:54 AM 25.3 °F 15.3 °F 18.5 °F 75% 29.35 in 10.0 mi South 10.4 mph - N/A   Clear
7:13 AM 27.5 °F 16.3 °F 20.3 °F 74% 29.34 in 10.0 mi South 13.8 mph - N/A   Clear
7:34 AM 27.0 °F 16.7 °F 19.8 °F 74% 29.33 in 10.0 mi SSW 11.5 mph - N/A   Clear
7:54 AM 29.3 °F 18.6 °F 20.1 °F 69% 29.34 in 10.0 mi SSW 13.8 mph - N/A   Clear
8:34 AM 31.8 °F 20.6 °F 20.7 °F 63% 29.34 in 10.0 mi South 17.3 mph 21.9 mph N/A   Mostly Cloudy
8:54 AM 32.5 °F 21.9 °F 20.3 °F 61% 29.34 in 10.0 mi SSW 16.1 mph 27.6 mph N/A   Mostly Cloudy
9:14 AM 33.8 °F 22.8 °F 19.4 °F 56% 29.34 in 10.0 mi SSW 18.4 mph 24.2 mph N/A   Mostly Cloudy
9:34 AM 35.1 °F 22.2 °F 12.0 °F 39% 29.34 in 10.0 mi SW 27.6 mph 35.7 mph N/A   Mostly Cloudy
9:54 AM 36.1 °F 24.2 °F 6.8 °F 29% 29.34 in 10.0 mi SW 25.3 mph 40.3 mph N/A   Mostly Cloudy
10:14 AM 35.1 °F 22.0 °F 2.1 °F 25% 29.34 in 10.0 mi SW 28.8 mph 41.4 mph N/A   Mostly Cloudy
10:34 AM 35.1 °F 21.8 °F -7.1 °F 16% 29.33 in 7.0 mi SW 29.9 mph 44.9 mph N/A   Scattered Clouds
10:54 AM 35.2 °F 21.6 °F -3.3 °F 19% 29.32 in 10.0 mi WSW 32.2 mph 41.4 mph N/A   Scattered Clouds
11:14 AM 34.3 °F 20.8 °F 5.4 °F 30% 29.32 in 10.0 mi West 29.9 mph 35.7 mph N/A   Scattered Clouds
11:34 AM 32.0 °F 16.2 °F -0.0 °F 26% 29.30 in 10.0 mi West 38.0 mph 51.8 mph N/A   Clear
11:54 AM 32.4 °F 17.0 °F -6.9 °F 18% 29.32 in 10.0 mi West 35.7 mph 52.9 mph N/A   Clear
12:14 PM 32.7 °F 18.6 °F -8.1 °F 17% 29.34 in 10.0 mi West 29.9 mph 39.1 mph N/A   Clear
1:07 PM 32.0 °F 17.6 °F -17.0 °F 11% 29.36 in 10.0 mi West 29.9 mph 41.4 mph N/A   Clear
1:34 PM 31.8 °F 17.9 °F -14.1 °F 13% 29.38 in 10.0 mi West 27.6 mph 40.3 mph N/A   Clear
1:54 PM 31.3 °F 17.1 °F -14.8 °F 13% 29.40 in 10.0 mi WSW 27.6 mph 41.4 mph N/A   Clear
2:14 PM 30.6 °F 15.9 °F -15.7 °F 13% 29.42 in 10.0 mi West 28.8 mph 39.1 mph N/A   Clear
2:34 PM 29.7 °F 14.2 °F -14.6 °F 14% 29.44 in 10.0 mi West 31.1 mph 41.4 mph N/A   Clear
2:54 PM 29.3 °F 13.5 °F -15.5 °F 14% 29.45 in 10.0 mi West 32.2 mph 42.6 mph N/A   Clear
3:14 PM 28.2 °F 14.2 °F -17.1 °F 13% 29.47 in 10.0 mi West 23.0 mph 36.8 mph N/A   Clear
3:34 PM 27.1 °F 12.4 °F -18.0 °F 13% 29.48 in 10.0 mi West 24.2 mph 35.7 mph N/A   Clear
3:54 PM 26.2 °F 12.2 °F -16.8 °F 15% 29.50 in 10.0 mi West 20.7 mph 33.4 mph N/A   Clear
4:14 PM 24.8 °F 11.5 °F -18.4 °F 14% 29.52 in 10.0 mi West 17.3 mph 29.9 mph N/A   Clear
4:34 PM 23.7 °F 10.1 °F -15.9 °F 17% 29.52 in 10.0 mi West 17.3 mph 24.2 mph N/A   Clear
4:54 PM 22.1 °F 10.6 °F -14.8 °F 19% 29.54 in 10.0 mi West 11.5 mph 19.6 mph N/A   Clear
5:14 PM 21.0 °F 8.6 °F -13.2 °F 22% 29.56 in 10.0 mi West 12.7 mph - N/A   Clear
5:34 PM 19.9 °F 7.3 °F -13.0 °F 23% 29.57 in 10.0 mi West 12.7 mph - N/A   Clear
5:54 PM 19.2 °F 8.4 °F -11.2 °F 26% 29.58 in 10.0 mi West 9.2 mph - N/A   Clear
6:14 PM 19.4 °F 6.0 °F -11.2 °F 25% 29.60 in 10.0 mi West 13.8 mph - N/A   Clear
6:34 PM 19.2 °F 7.0 °F -9.9 °F 27% 29.60 in 10.0 mi West 11.5 mph - N/A   Clear
6:54 PM 15.8 °F 8.6 °F -10.1 °F 31% 29.62 in 10.0 mi NW 4.6 mph - N/A   Clear
7:14 PM 10.2 °F - -5.4 °F 49% 29.64 in 10.0 mi Calm Calm - N/A   Clear
7:34 PM 10.4 °F -1.5 °F 3.4 °F 73% 29.65 in 10.0 mi NE 8.1 mph - N/A   Scattered Clouds
7:54 PM 11.3 °F 1.9 °F 9.9 °F 94% 29.66 in 10.0 mi North 5.8 mph - N/A   Scattered Clouds
8:14 PM 10.8 °F 4.5 °F 9.5 °F 95% 29.67 in 10.0 mi NNE 3.5 mph - N/A   Scattered Clouds
8:34 PM 10.8 °F 4.5 °F 9.3 °F 94% 29.68 in 10.0 mi WNW 3.5 mph - N/A   Scattered Clouds
8:54 PM 9.9 °F - 7.2 °F 89% 29.68 in 10.0 mi Calm Calm - N/A   Clear
9:14 PM 9.0 °F -0.9 °F 6.3 °F 89% 29.68 in 10.0 mi NNE 5.8 mph - N/A   Clear
9:34 PM 9.1 °F 2.6 °F 3.9 °F 79% 29.69 in 10.0 mi North 3.5 mph - N/A   Clear
9:54 PM 5.5 °F -3.4 °F -0.9 °F 75% 29.69 in 10.0 mi WNW 4.6 mph - N/A   Clear
10:34 PM 11.7 °F 0.0 °F -5.8 °F 46% 29.70 in 10.0 mi WNW 8.1 mph - N/A   Clear
10:54 PM 12.6 °F 2.2 °F -7.1 °F 41% 29.70 in 10.0 mi NW 6.9 mph - N/A   Clear
11:14 PM 13.3 °F 1.1 °F -8.0 °F 38% 29.71 in 10.0 mi West 9.2 mph - N/A   Clear
11:34 PM 10.6 °F 1.0 °F -8.9 °F 41% 29.71 in 10.0 mi SW 5.8 mph - N/A   Clear
11:54 PM 13.6 °F 1.6 °F -7.6 °F 38% 29.72 in 10.0 mi West 9.2 mph - N/A   Clear